Flag for Switzerland Weather past 2 weeks in Solothurn, Solothurn, Switzerland

Now
53 °F

Cool.


Feels Like: 53 °F
Forecast: 36 / 59 °F
Wind: 2 mph from Northeast

Location: Grenchen

Current Time: Oct 25, 2014 at 6:01:10 PM

Latest Report: Oct 25, 2014 at 5:00 PM


Visibility: N/A

Pressure: 30.18 "Hg

Humidity: 85%

Dew point: 48 °F

Location of SolothurnLocation

Historic Weather in Solothurn — Graph

°F

Solothurn temperature yesterday

Maximum temperature yesterday: 49 °F (at 5:00 PM)
Minimum temperature yesterday: 34 °F (at 7:00 AM)
Average temperature yesterday: 41 °F

Past Weeks' High & Low Weather Summary

 TemperatureHumidityPressure
High70 °F (Oct 19, 4:00 PM)100% (Oct 11, 12:00 AM)30.36 "Hg (Oct 11, 12:00 AM)
Low34 °F (Oct 24, 7:00 AM)51% (Oct 21, 3:00 PM)29.78 "Hg (Oct 15, 5:00 PM)
Average54 °F89%30.05 "Hg
* Reported Oct 10 4:00 PM — Oct 25 4:00 PM, Solothurn, Weather by CustomWeather, © 2014

Note: Actual official high and low records may vary slightly from our data, if they occured in-between our weather recording intervals... More about our weather records

Advertising

Solothurn weather history for previous 24 hours

 ConditionsComfort  
Time TempWeatherWind HumidityBarometerVisibility
4:00 PM
Oct 25
53 °FCool.3 mph82%30.17 "HgN/A
3:00 PM53 °FCool.1 mph81%30.17 "HgN/A
2:00 PM52 °FCool.2 mph81%30.18 "HgN/A
1:00 PM51 °FCool.1 mph85%30.19 "HgN/A
12:00 PM49 °FCool.No wind90%30.19 "HgN/A
11:00 AM48 °FCool.2 mph93%30.19 "HgN/A
10:00 AM48 °FCool.3 mph92%30.18 "HgN/A
9:00 AM46 °FCool.No wind96%30.18 "HgN/A
8:00 AM45 °FCool.1 mph97%30.17 "HgN/A
7:00 AM45 °FCool.1 mph97%30.16 "HgN/A
6:00 AM45 °FCool.No wind95%30.16 "HgN/A
5:00 AM45 °FQuite cool.1 mph95%30.16 "HgN/A
4:00 AM45 °FQuite cool.1 mph94%30.16 "HgN/A
3:00 AM44 °FQuite cool.2 mph95%30.17 "HgN/A
2:00 AM44 °FQuite cool.No wind95%30.18 "HgN/A
1:00 AM44 °FQuite cool.2 mph95%30.18 "HgN/A
12:00 AM44 °FQuite cool.2 mph94%30.19 "HgN/A
11:00 PM
Oct 24
43 °FQuite cool.1 mph96%30.20 "HgN/A
10:00 PM42 °FQuite cool.3 mph96%30.20 "HgN/A
9:00 PM42 °FQuite cool.2 mph97%30.19 "HgN/A
8:00 PM43 °FQuite cool.1 mph93%30.18 "HgN/A
7:00 PM45 °FQuite cool.1 mph88%30.17 "HgN/A
6:00 PM46 °FCool.6 mph84%30.16 "HgN/A
Weather by CustomWeather, © 2014

See weather overviewHow to use our weather pages